Location: Rounton
(54.4000°N, 1.3500°W)
Time: 02:27:07
(UTC+00:00)

Vanguard 3 - Pass Details

Date: 09 December 2021
Orbit: 508 x 3260 km, 33.3° (Epoch: 19 January)

Event Time Altitude Azimuth Distance (km) Brightness Sun altitude
Exits shadow 06:50:27 - 264° (W) 7,024 11.4 -11.2°
Reaches altitude 10° 06:55:20 10° 256° (WSW) 6,183 11.2 -10.5°
Maximum altitude 07:09:36 27° 208° (SSW) 4,377 10.9 -8.6°
Drops below altitude 10° 07:20:52 10° 158° (SSE) 4,807 11.9 -7.2°
Sets 07:24:49 0° 147° (SSE) 5,418 12.7 -6.7°
